Location: Coupvray
(48.8929°N, 2.7967°E)
Time: 21:02:19
(UTC+00:00)

Meteor 1-29 - Pass Details

Date: 14 July 2020
Orbit: 440 x 459 km, 97.7° (Epoch: 14 August)

Event Time Altitude Azimuth Distance (km) Brightness Sun altitude
Rises 00:54:23 0° 12° (NNE) 2,466 8.4 -18.2°
Reaches altitude 10° 00:56:25 10° 11° (N) 1,592 7.0 -18.1°
Maximum altitude 00:59:49 77° 285° (WNW) 471 2.9 -18.0°
Enters shadow 01:00:31 53° 214° (SSW) 566 3.0 -18.0°
